Previsão horária em Allauch

Hoje, 25 Janeiro, Segunda-feira

Tempo Temperatura Precipitação Vento Pressão Humidade
00:00 +5°C° 0.5 mm 9 m/s 735 mmHg 84%
01:00 +6°C° 0.4 mm 8 m/s 734 mmHg 84%
02:00 +6°C° 0.4 mm 8 m/s 734 mmHg 83%
03:00 +6°C° 0.4 mm 8 m/s 734 mmHg 82%
04:00 +5°C° 0 mm 8 m/s 734 mmHg 82%
05:00 +5°C° 0 mm 8 m/s 734 mmHg 82%
06:00 +4°C° 0 mm 8 m/s 734 mmHg 82%
07:00 0°C° 0 mm 8 m/s 740 mmHg 54%
08:00 0°C° 0 mm 9 m/s 741 mmHg 51%
09:00 +1°C° 0 mm 9 m/s 741 mmHg 49%
10:00 +2°C° 0 mm 9 m/s 742 mmHg 47%
11:00 +3°C° 0 mm 9 m/s 742 mmHg 45%
12:00 +3°C° 0 mm 9 m/s 742 mmHg 43%
13:00 +3°C° 0 mm 9 m/s 742 mmHg 44%
14:00 +3°C° 0 mm 9 m/s 742 mmHg 45%
15:00 +3°C° 0 mm 9 m/s 742 mmHg 46%
16:00 +2°C° 0 mm 8 m/s 742 mmHg 47%
17:00 +2°C° 0 mm 8 m/s 743 mmHg 49%
18:00 +2°C° 0 mm 7 m/s 743 mmHg 51%
19:00 +2°C° 0 mm 7 m/s 744 mmHg 50%
20:00 +2°C° 0 mm 6 m/s 744 mmHg 50%
21:00 +2°C° 0 mm 6 m/s 744 mmHg 49%
22:00 +1°C° 0 mm 6 m/s 744 mmHg 51%
23:00 +1°C° 0 mm 6 m/s 744 mmHg 53%

Amanhã, 26 Janeiro, Terça-feira

Tempo Temperatura Precipitação Vento Pressão Humidade
00:00 +1°C° 0 mm 6 m/s 744 mmHg 55%
01:00 +1°C° 0 mm 6 m/s 744 mmHg 57%
02:00 +1°C° 0 mm 6 m/s 744 mmHg 60%
03:00 -1°C° 0 mm 6 m/s 744 mmHg 63%
04:00 -1°C° 0 mm 6 m/s 744 mmHg 63%
05:00 -1°C° 0 mm 6 m/s 745 mmHg 63%
06:00 -1°C° 0 mm 6 m/s 745 mmHg 64%
07:00 +1°C° 0 mm 6 m/s 745 mmHg 60%
08:00 +1°C° 0 mm 6 m/s 745 mmHg 56%
09:00 +2°C° 0 mm 6 m/s 746 mmHg 52%
10:00 +3°C° 0 mm 6 m/s 745 mmHg 50%
11:00 +4°C° 0 mm 6 m/s 745 mmHg 49%
12:00 +5°C° 0 mm 6 m/s 745 mmHg 47%
13:00 +5°C° 0 mm 6 m/s 745 mmHg 48%
14:00 +5°C° 0 mm 6 m/s 745 mmHg 49%
15:00 +6°C° 0 mm 5 m/s 744 mmHg 50%
16:00 +5°C° 0 mm 5 m/s 744 mmHg 54%
17:00 +3°C° 0 mm 5 m/s 744 mmHg 59%
18:00 +3°C° 0 mm 5 m/s 744 mmHg 63%
19:00 +2°C° 0 mm 5 m/s 745 mmHg 63%
20:00 +3°C° 0 mm 4 m/s 745 mmHg 64%
21:00 +3°C° 0 mm 4 m/s 745 mmHg 65%
22:00 +3°C° 0 mm 4 m/s 745 mmHg 64%
23:00 +3°C° 0 mm 4 m/s 745 mmHg 63%

Depois de amanhã, 27 Janeiro, Quarta-feira

Tempo Temperatura Precipitação Vento Pressão Humidade
00:00 +3°C° 0 mm 4 m/s 745 mmHg 63%
01:00 +3°C° 0 mm 4 m/s 745 mmHg 65%
02:00 +3°C° 0 mm 4 m/s 744 mmHg 68%
03:00 +3°C° 0 mm 4 m/s 744 mmHg 71%
04:00 +2°C° 0 mm 5 m/s 744 mmHg 74%
05:00 +2°C° 0 mm 5 m/s 744 mmHg 76%
06:00 +2°C° 0 mm 6 m/s 744 mmHg 79%
07:00 +4°C° 0 mm 6 m/s 744 mmHg 76%
08:00 +5°C° 0 mm 7 m/s 745 mmHg 73%
09:00 +6°C° 0 mm 7 m/s 745 mmHg 70%
10:00 +9°C° 0 mm 8 m/s 745 mmHg 65%
11:00 +10°C° 0 mm 9 m/s 745 mmHg 60%
12:00 +11°C° 0 mm 10 m/s 745 mmHg 55%
13:00 +11°C° 0 mm 10 m/s 745 mmHg 54%
14:00 +11°C° 0 mm 10 m/s 745 mmHg 52%
15:00 +11°C° 0 mm 9 m/s 745 mmHg 51%
16:00 +10°C° 0 mm 9 m/s 745 mmHg 54%
17:00 +9°C° 0 mm 8 m/s 745 mmHg 56%
18:00 +7°C° 0 mm 8 m/s 745 mmHg 58%
19:00 +6°C° 0 mm 7 m/s 745 mmHg 61%
20:00 +7°C° 0 mm 6 m/s 745 mmHg 64%
21:00 +5°C° 0 mm 6 m/s 745 mmHg 67%
22:00 +6°C° 0 mm 5 m/s 745 mmHg 69%
23:00 +5°C° 0 mm 5 m/s 745 mmHg 70%

28 Janeiro, Quinta-feira

Tempo Temperatura Precipitação Vento Pressão Humidade
00:00 +5°C° 0 mm 4 m/s 745 mmHg 71%
01:00 +5°C° 0 mm 4 m/s 745 mmHg 70%
02:00 +5°C° 0 mm 4 m/s 745 mmHg 68%
03:00 +4°C° 0 mm 4 m/s 745 mmHg 67%
04:00 +5°C° 0 mm 4 m/s 745 mmHg 64%
05:00 +5°C° 0 mm 4 m/s 745 mmHg 61%
06:00 +6°C° 0 mm 4 m/s 745 mmHg 58%
07:00 +6°C° 0 mm 5 m/s 745 mmHg 60%
08:00 +7°C° 0 mm 5 m/s 746 mmHg 61%
09:00 +8°C° 0 mm 5 m/s 746 mmHg 62%
10:00 +9°C° 0 mm 5 m/s 746 mmHg 61%
11:00 +11°C° 0 mm 6 m/s 746 mmHg 60%
12:00 +13°C° 0 mm 6 m/s 745 mmHg 59%
13:00 +12°C° 0 mm 7 m/s 745 mmHg 59%
14:00 +12°C° 0 mm 7 m/s 745 mmHg 60%
15:00 +12°C° 0 mm 7 m/s 745 mmHg 61%
16:00 +11°C° 0 mm 7 m/s 745 mmHg 66%
17:00 +10°C° 0 mm 7 m/s 745 mmHg 71%
18:00 +10°C° 0 mm 6 m/s 745 mmHg 76%

29 Janeiro, Sexta-feira

Tempo Temperatura Precipitação Vento Pressão Humidade

30 Janeiro, Sábado

Tempo Temperatura Precipitação Vento Pressão Humidade
Mostrar mais

Necessitamos do seu Consentimento

A Meteoprog e os seus Fornecedores de Serviços podem armazenar e aceder a dados pessoais como cookies, identificadores do dispositivo ou outras tecnologias semelhantes existentes no seu dispositivo e processar estes dados para personalizar conteúdos e anúncios, assim como funcionalidades nas redes sociais e análise de tráfego.

  • Armazenar e/ou aceder a informações no seu dispositivo

    Os cookies, identificadores do dispositivo ou outras informações podem ser armazenados ou acedidos no seu dispositivo, para os fins acima indicados.

  • Anúncios e conteúdos personalizados, medição de anúncios e conteúdos, dados sobre o público-alvo e desenvolvimento de produtos

    Os anúncios e os conteúdos podem ser personalizados com base num perfil. Podem ser adicionados dados adicionais para uma maior personalização dos anúncios e dos conteúdos. A eficácia dos anúncios e dos conteúdos pode ser medida. Podem ser obtidas informações sobre o público que visualizou os anúncios e os conteúdos. Estes dados podem ser usados para desenvolver ou melhorar sistemas, softwares ou a experiência do utilizador.

Ao clicar em "Eu concordo”, permitirá o uso de cookies, identificadores do dispositivo e web beacons mencionados ou outras tecnologias semelhantes. As configurações do navegador do seu dispositivo podem ser alteradas.

Para certos fins, podem ser invocados interesses legítimos ao invés de consentimento. Pode ler mais informação sobre este assunto na nossa Política de Privacidade e Cookies.